KD7MPG-3 Weather Reports


time (UTC)temp
C
wind
direction
speed
KPH
gust
KPH
rain 1hr
cm
rain 24hr
cm
rain mn
cm
humidity
%
barometer
mb
20260502164032 12 292 1.6 9.7 0.00 0.00 0.00 84 1024.8
20260502163533 12 51 4.8 9.7 0.00 0.00 0.00 83 1025.0
20260502163028 12 275 3.2 9.7 0.00 0.00 0.00 84 1024.9
20260502162527 12 252 1.6 9.7 0.00 0.00 0.00 84 1024.8
20260502162029 12 305 3.2 9.7 0.00 0.00 0.00 85 1024.7
20260502161529 11 10 4.8 9.7 0.00 0.00 0.00 85 1025.0
20260502161026 11 280 3.2 6.4 0.00 0.00 0.00 84 1024.9
20260502160527 11 271 3.2 6.4 0.00 0.00 0.00 85 1024.9
20260502152014 10 343 1.6 6.4 0.00 0.00 0.00 88 1024.4
20260502151513 10 288 1.6 4.8 0.00 0.00 0.00 88 1024.6
20260502151014 10 294 1.6 4.8 0.00 0.00 0.00 88 1024.5
20260502150515 10 331 1.6 6.4 0.00 0.00 0.00 87 1024.5
20260502130451 10 285 3.2 6.4 0.00 0.00 0.00 87 1024.6
20260502123445 10 0 3.2 8.0 0.00 0.00 0.00 87 1024.5
20260502122941 10 336 1.6 6.4 0.00 0.00 0.00 88 1024.7
20260502122441 10 336 1.6 4.8 0.00 0.00 0.00 88 1024.5
20260502121943 10 297 1.6 4.8 0.00 0.00 0.00 88 1024.7
20260502121439 10 319 3.2 6.4 0.00 0.00 0.00 88 1024.6
20260502120938 10 278 3.2 6.4 0.00 0.00 0.00 88 1024.6
20260502120439 10 289 3.2 9.7 0.00 0.00 0.00 88 1024.7
20260502115435 10 277 3.2 9.7 0.00 0.00 0.00 88 1024.6
20260502114937 10 266 1.6 6.4 0.00 0.00 0.00 88 1024.6
20260502114436 10 277 1.6 4.8 0.00 0.00 0.00 88 1024.7
20260502113936 10 278 3.2 8.0 0.00 0.00 0.00 89 1024.7
20260502113437 10 355 1.6 8.0 0.00 0.00 0.00 89 1024.6
20260502112935 10 305 1.6 6.4 0.00 0.00 0.00 89 1024.6
20260502112435 10 298 1.6 4.8 0.00 0.00 0.00 89 1024.6
20260502111937 10 284 1.6 3.2 0.00 0.00 0.00 89 1024.6
20260502111431 10 279 1.6 4.8 0.00 0.00 0.00 88 1024.7
20260502110932 10 279 1.6 4.8 0.00 0.00 0.00 89 1024.8
20260502110433 10 300 1.6 4.8 0.00 0.00 0.00 88 1024.7
20260502105931 10 12 1.6 6.4 0.00 0.00 0.00 88 1024.6
20260502105431 10 12 1.6 6.4 0.00 0.00 0.00 88 1024.4
20260502104932 10 34 1.6 6.4 0.00 0.00 0.00 88 1024.5
20260502104428 10 344 1.6 4.8 0.00 0.00 0.00 88 1024.6
20260502103928 10 309 3.2 6.4 0.00 0.00 0.00 88 1024.8
20260502103429 10 307 3.2 6.4 0.00 0.00 0.00 88 1024.6
20260502102928 10 5 3.2 8.0 0.00 0.00 0.00 88 1024.5
20260502102427 10 345 3.2 8.0 0.00 0.00 0.00 88 1024.5
20260502101929 10 355 3.2 8.0 0.00 0.00 0.00 88 1024.5
20260502101428 10 292 1.6 4.8 0.00 0.00 0.00 87 1024.5
20260502100927 10 323 3.2 9.7 0.00 0.00 0.00 87 1024.5
20260502100427 10 315 3.2 11.3 0.00 0.00 0.00 87 1024.5
20260502091427 11 276 4.8 9.7 0.00 0.00 0.00 85 1024.7
20260502090923 11 302 3.2 9.7 0.00 0.00 0.00 84 1024.7
20260502090421 11 274 3.2 8.0 0.00 0.00 0.00 84 1024.8
20260502071351 12 304 1.6 4.8 0.00 0.00 0.00 83 1025.9
20260502070851 12 304 1.6 4.8 0.00 0.00 0.00 83 1025.8
20260502070352 12 308 1.6 6.4 0.00 0.00 0.00 83 1025.7
20260502065850 12 319 1.6 6.4 0.00 0.00 0.00 83 1025.6
20260502065347 12 333 1.6 4.8 0.00 0.00 0.00 83 1025.5
20260502064849 12 274 1.6 4.8 0.00 0.00 0.00 83 1025.5
20260502064345 12 337 1.6 6.4 0.00 0.00 0.00 83 1025.7
20260502063843 12 273 1.6 6.4 0.00 0.00 0.00 83 1025.6
20260502063344 12 333 1.6 6.4 0.00 0.00 0.00 83 1025.5
20260502062838 12 298 1.6 9.7 0.00 0.00 0.00 83 1025.5
20260502062338 12 261 1.6 9.7 0.00 0.00 0.00 83 1025.6
20260502061837 12 288 3.2 9.7 0.00 0.00 0.00 83 1025.6
20260502061337 12 298 3.2 9.7 0.00 0.00 0.00 83 1025.6
20260502060838 12 284 3.2 8.0 0.00 0.00 0.00 83 1025.6
20260502060338 12 320 1.6 6.4 0.00 0.00 0.00 83 1025.5
20260502055833 12 281 0.0 3.2 0.00 0.00 0.00 83 1025.5
20260502055331 12 282 0.0 3.2 0.00 0.00 0.00 83 1025.6
20260502054832 12 281 1.6 3.2 0.00 0.00 0.00 83 1025.4
20260502054331 12 281 1.6 3.2 0.00 0.00 0.00 83 1025.3
20260502053831 12 281 1.6 3.2 0.00 0.00 0.00 83 1025.4
20260502053332 12 281 1.6 6.4 0.00 0.00 0.00 83 1025.3
20260502052827 12 0 1.6 6.4 0.00 0.00 0.00 82 1025.3
20260502052327 12 289 3.2 6.4 0.00 0.00 0.00 83 1025.1
20260502051829 13 273 1.6 6.4 0.00 0.00 0.00 82 1025.1
20260502051328 13 319 3.2 4.8 0.00 0.00 0.00 82 1025.1
20260502050825 13 272 1.6 4.8 0.00 0.00 0.00 82 1025.1
20260502050325 13 350 0.0 4.8 0.00 0.00 0.00 82 1025.0
20260502045822 13 304 0.0 3.2 0.00 0.00 0.00 82 1025.0
20260502045321 13 284 1.6 4.8 0.00 0.00 0.00 82 1024.9
20260502044822 13 283 1.6 4.8 0.00 0.00 0.00 82 1024.9
20260502044321 13 288 3.2 9.7 0.00 0.00 0.00 81 1024.9
20260502043819 13 264 3.2 9.7 0.00 0.00 0.00 81 1024.9
20260502043320 13 281 3.2 12.9 0.00 0.00 0.00 81 1024.9
20260502042815 13 273 4.8 12.9 0.00 0.00 0.00 81 1024.8
20260502042312 13 267 3.2 11.3 0.00 0.00 0.00 81 1024.8
20260502041813 13 284 3.2 9.7 0.00 0.00 0.00 81 1024.6
20260502041313 13 251 4.8 11.3 0.00 0.00 0.00 81 1024.6
20260502040813 13 299 4.8 11.3 0.00 0.00 0.00 81 1024.6
20260502040314 13 249 4.8 11.3 0.00 0.00 0.00 81 1024.5
20260502035808 13 287 6.4 12.9 0.00 0.00 0.00 81 1024.4
20260502035307 13 267 6.4 14.5 0.00 0.00 0.00 81 1024.3
20260502034807 13 296 6.4 14.5 0.00 0.00 0.00 81 1024.3
20260502034307 13 282 4.8 14.5 0.00 0.00 0.00 81 1024.2
20260502033807 13 265 6.4 14.5 0.00 0.00 0.00 81 1024.2
20260502033308 13 239 6.4 14.5 0.00 0.00 0.00 80 1024.2
20260502032802 13 257 6.4 19.3 0.00 0.00 0.00 80 1024.1
20260502032301 13 258 6.4 19.3 0.00 0.00 0.00 79 1024.0
20260502031800 14 234 6.4 17.7 0.00 0.00 0.00 79 1023.9
20260502031301 14 0 6.4 14.5 0.00 0.00 0.00 78 1023.9
20260502030801 14 0 6.4 16.1 0.00 0.00 0.00 77 1023.9
20260502030301 15 296 6.4 16.1 0.00 0.00 0.00 77 1023.8
20260502025758 15 299 4.8 16.1 0.00 0.00 0.00 76 1023.7
20260502025257 15 326 4.8 12.9 0.00 0.00 0.00 76 1023.6
20260502024755 15 267 4.8 14.5 0.00 0.00 0.00 75 1023.6
20260502024255 15 291 4.8 14.5 0.00 0.00 0.00 75 1023.5
20260502023755 16 269 4.8 12.9 0.00 0.00 0.00 74 1023.5
20260502023301 16 304 4.8 11.3 0.00 0.00 0.00 74 1023.4
20260502022753 16 272 3.2 11.3 0.00 0.00 0.00 74 1023.6
20260502022250 16 268 4.8 17.7 0.00 0.00 0.00 73 1023.5
20260502021749 16 0 6.4 17.7 0.00 0.00 0.00 73 1023.4
20260502021249 16 355 4.8 12.9 0.00 0.00 0.00 73 1023.4
20260502020749 16 270 3.2 11.3 0.00 0.00 0.00 72 1023.3
20260502020250 16 254 4.8 14.5 0.00 0.00 0.00 73 1023.3
20260502015744 17 225 6.4 14.5 0.00 0.00 0.00 72 1023.3
20260502015243 17 243 6.4 19.3 0.00 0.00 0.00 71 1023.3
20260502014743 17 203 8.0 19.3 0.00 0.00 0.00 70 1023.2
20260502014243 18 229 6.4 19.3 0.00 0.00 0.00 70 1023.2
20260502013743 18 0 4.8 19.3 0.00 0.00 0.00 69 1023.1
20260502013242 18 273 6.4 12.9 0.00 0.00 0.00 69 1023.2
20260502012736 18 43 4.8 12.9 0.00 0.00 0.00 68 1023.1
20260502012237 19 310 6.4 14.5 0.00 0.00 0.00 68 1023.2
20260502011737 19 263 6.4 17.7 0.00 0.00 0.00 67 1023.3
20260502011236 19 284 6.4 17.7 0.00 0.00 0.00 67 1023.3
20260502010737 19 268 6.4 16.1 0.00 0.00 0.00 67 1023.3
20260502010238 19 288 4.8 14.5 0.00 0.00 0.00 68 1023.2
20260502005732 19 340 4.8 14.5 0.00 0.00 0.00 68 1023.2
20260502005231 20 265 6.4 12.9 0.00 0.00 0.00 66 1023.1
20260502004731 20 265 6.4 12.9 0.00 0.00 0.00 66 1023.2
20260502004231 20 0 8.0 17.7 0.00 0.00 0.00 65 1023.1
20260502003731 20 267 9.7 17.7 0.00 0.00 0.00 63 1023.2
20260502003232 21 311 8.0 17.7 0.00 0.00 0.00 63 1023.1
20260502002733 21 346 6.4 17.7 0.00 0.00 0.00 63 1023.1
20260502002227 21 291 6.4 16.1 0.00 0.00 0.00 63 1023.1
20260502001725 21 265 8.0 17.7 0.00 0.00 0.00 62 1023.1
20260502001224 22 278 6.4 17.7 0.00 0.00 0.00 61 1022.9
20260502000724 22 0 6.4 17.7 0.00 0.00 0.00 61 1023.0
20260502000226 22 5 6.4 14.5 0.00 0.00 0.00 61 1023.0
20260501235720 22 321 6.4 17.7 0.00 0.00 0.00 61 1023.0
20260501235221 22 298 8.0 17.7 0.00 0.00 0.00 60 1023.1
20260501234722 22 292 8.0 16.1 0.00 0.00 0.00 60 1023.2
20260501234221 22 263 8.0 19.3 0.00 0.00 0.00 59 1023.2
20260501233719 23 259 8.0 19.3 0.00 0.00 0.00 59 1023.1
20260501233220 23 324 8.0 17.7 0.00 0.00 0.00 60 1023.2
20260501232717 22 330 6.4 17.7 0.00 0.00 0.00 61 1023.3
20260501232216 22 250 4.8 12.9 0.00 0.00 0.00 62 1023.2
20260501231709 22 346 6.4 12.9 0.00 0.00 0.00 62 1023.2
20260501231204 22 273 6.4 12.9 0.00 0.00 0.00 61 1023.3
20260501230702 23 275 4.8 12.9 0.00 0.00 0.00 60 1023.4
20260501230203 23 255 3.2 12.9 0.00 0.00 0.00 60 1023.3
20260501225702 23 175 1.6 8.0 0.00 0.00 0.00 61 1023.4
20260501225203 23 241 3.2 11.3 0.00 0.00 0.00 59 1023.3
20260501224702 23 96 3.2 11.3 0.00 0.00 0.00 63 1023.5
20260501224204 23 250 3.2 11.3 0.00 0.00 0.00 61 1023.5
20260501223658 23 316 4.8 11.3 0.00 0.00 0.00 60 1023.5
20260501223159 23 257 4.8 11.3 0.00 0.00 0.00 59 1023.5
20260501222659 23 240 3.2 8.0 0.00 0.00 0.00 61 1023.5
20260501222158 23 93 3.2 11.3 0.00 0.00 0.00 59 1023.6
20260501221659 22 324 3.2 11.3 0.00 0.00 0.00 59 1023.6
20260501221200 22 234 3.2 9.7 0.00 0.00 0.00 59 1023.7
20260501220654 22 263 4.8 11.3 0.00 0.00 0.00 57 1023.7
20260501220155 22 255 4.8 11.3 0.00 0.00 0.00 58 1023.8
20260501215655 22 240 4.8 9.7 0.00 0.00 0.00 58 1023.8
20260501215154 22 281 3.2 9.7 0.00 0.00 0.00 59 1023.8
20260501214655 22 305 3.2 12.9 0.00 0.00 0.00 59 1024.0
20260501214156 22 88 3.2 12.9 0.00 0.00 0.00 61 1024.0
20260501213655 22 223 3.2 9.7 0.00 0.00 0.00 62 1024.1
20260501213154 22 194 3.2 8.0 0.00 0.00 0.00 61 1024.1
20260501212654 22 128 3.2 8.0 0.00 0.00 0.00 64 1024.2
20260501212156 22 230 3.2 8.0 0.00 0.00 0.00 64 1024.2
20260501211653 22 209 3.2 6.4 0.00 0.00 0.00 63 1024.3
20260501211153 21 269 3.2 9.7 0.00 0.00 0.00 62 1024.3
20260501210653 22 205 3.2 9.7 0.00 0.00 0.00 62 1024.3
20260501210153 22 254 1.6 8.0 0.00 0.00 0.00 63 1024.4
20260501205650 22 254 1.6 4.8 0.00 0.00 0.00 64 1024.4
20260501205151 21 88 1.6 9.7 0.00 0.00 0.00 65 1024.4
20260501204646 21 132 3.2 9.7 0.00 0.00 0.00 69 1024.5
20260501204146 21 128 1.6 6.4 0.00 0.00 0.00 67 1024.6
20260501203647 20 148 1.6 8.0 0.00 0.00 0.00 67 1024.7
20260501203144 20 265 3.2 11.3 0.00 0.00 0.00 67 1024.7
20260501202642 21 242 3.2 9.7 0.00 0.00 0.00 67 1024.8
20260501202143 20 168 1.6 8.0 0.00 0.00 0.00 69 1024.8
20260501201638 20 310 1.6 4.8 0.00 0.00 0.00 71 1024.9
20260501201138 20 53 1.6 11.3 0.00 0.00 0.00 71 1024.9
20260501200636 20 311 3.2 11.3 0.00 0.00 0.00 69 1024.9
20260501200136 19 194 3.2 14.5 0.00 0.00 0.00 69 1025.0
20260501195636 19 274 3.2 14.5 0.00 0.00 0.00 69 1025.1
20260501195136 19 257 3.2 8.0 0.00 0.00 0.00 69 1025.3
20260501194631 19 286 4.8 14.5 0.00 0.00 0.00 68 1025.2
20260501194135 19 272 4.8 14.5 0.00 0.00 0.00 69 1025.3
20260501193631 19 105 3.2 11.3 0.00 0.00 0.00 69 1025.3
20260501193135 19 208 4.8 11.3 0.00 0.00 0.00 68 1025.4
20260501192630 19 269 4.8 11.3 0.00 0.00 0.00 69 1025.4
20260501192131 19 225 4.8 11.3 0.00 0.00 0.00 71 1025.4
20260501191628 18 298 4.8 11.3 0.00 0.00 0.00 71 1025.4
20260501191126 18 260 3.2 9.7 0.00 0.00 0.00 72 1025.4
20260501190628 18 276 3.2 9.7 0.00 0.00 0.00 74 1025.4
20260501190126 18 243 3.2 9.7 0.00 0.00 0.00 73 1025.4
20260501185624 18 270 3.2 9.7 0.00 0.00 0.00 72 1025.4
20260501185125 18 24 3.2 11.3 0.00 0.00 0.00 75 1025.5
20260501184620 17 263 4.8 11.3 0.00 0.00 0.00 73 1025.5
20260501184120 17 311 4.8 11.3 0.00 0.00 0.00 74 1025.6
20260501183618 17 279 3.2 11.3 0.00 0.00 0.00 74 1025.5
20260501183118 17 277 3.2 11.3 0.00 0.00 0.00 75 1025.5
20260501182618 17 198 4.8 11.3 0.00 0.00 0.00 76 1025.5
20260501182118 17 200 3.2 9.7 0.00 0.00 0.00 76 1025.5
20260501181617 17 215 3.2 11.3 0.00 0.00 0.00 76 1025.5
20260501181114 17 315 3.2 11.3 0.00 0.00 0.00 77 1025.6
20260501180615 17 167 3.2 9.7 0.00 0.00 0.00 78 1025.5
20260501180116 16 140 3.2 8.0 0.00 0.00 0.00 77 1025.6